Home   Weather   Blackpool   Past weeks

Flag for United Kingdom Past Weather in Blackpool, England, United Kingdom — Yesterday and Last 2 Weeks

Now
43 °F

Passing clouds.


Feels Like: 36 °F
Forecast: N/A
Wind: 13 mph from Southeast

Location: Blackpool Airport

Current Time: Jan 24, 2017 at 11:28:39 pm

Latest Report: Jan 24, 2017 at 8:50 pm


Visibility: N/A

Pressure: 30.24 "Hg

Humidity: 93%

Dew Point: 41 °F

Location of BlackpoolLocation

Past Weather in Blackpool — Graph

°F

Blackpool Temperature Yesterday

Maximum temperature yesterday: 41 °F (at 2:50 pm)
Minimum temperature yesterday: 32 °F (at 6:20 am)
Average temperature yesterday: 36 °F

High & Low Weather Summary for the Past Weeks

 TemperatureHumidityPressure
High48 °F (Jan 10, 6:50 pm)100% (Jan 10, 2:50 pm)30.66 "Hg (Jan 10, 2:50 pm)
Low32 °F (Jan 21, 8:20 am)57% (Jan 13, 5:20 pm)29.45 "Hg (Jan 12, 4:50 pm)
Average43 °F89%30.21 "Hg
* Reported Jan 9 8:20 pm — Jan 24 8:50 pm, Blackpool, Weather by CustomWeather, © 2017

Note: Actual official high and low records may vary slightly from our data, if they occured in-between our weather recording intervals... More about our weather records

Advertising

Blackpool Weather History for the Previous 24 Hours

Scroll right to see more
 ConditionsComfort  
Time TempWeatherWind HumidityBarometerVisibility
8:50 pm
Tue, Jan 24
43 °FPassing clouds.13 mph93%30.24 "HgN/A
8:20 pm45 °FPassing clouds.12 mph93%30.24 "HgN/A
7:50 pm43 °FPassing clouds.12 mph100%30.24 "HgN/A
7:20 pm45 °FPassing clouds.9 mph93%30.24 "HgN/A
6:50 pm45 °FPassing clouds.9 mph93%30.24 "HgN/A
6:20 pm45 °FPassing clouds.10 mph93%30.24 "HgN/A
5:50 pm45 °FPartly cloudy.10 mph93%30.24 "HgN/A
5:20 pm45 °FPartly cloudy.9 mph93%30.24 "HgN/A
4:50 pm45 °FPassing clouds.9 mph93%30.24 "HgN/A
4:20 pm45 °FPartly sunny.9 mph93%30.24 "Hg5 mi
3:50 pm45 °FScattered clouds.10 mph93%30.24 "Hg6 mi
3:20 pm45 °FPartly sunny.10 mph93%30.24 "Hg4 mi
2:50 pm45 °FPartly sunny.12 mph93%30.24 "Hg4 mi
2:20 pm43 °FPartly sunny.13 mph93%30.24 "Hg4 mi
1:50 pm43 °FOvercast.13 mph93%30.24 "Hg4 mi
1:20 pm43 °FOvercast.13 mph93%30.24 "Hg4 mi
12:50 pm41 °FPartly sunny.14 mph100%30.24 "Hg4 mi
12:20 pm41 °FPartly sunny.14 mph93%30.24 "Hg4 mi
11:50 am41 °FPartly sunny.14 mph93%30.27 "Hg4 mi
11:20 am39 °FPartly sunny.13 mph93%30.27 "Hg4 mi
10:50 am39 °FPartly sunny.15 mph93%30.27 "Hg5 mi
10:20 am39 °FPartly sunny.15 mph93%30.27 "Hg5 mi
9:50 am37 °FPartly sunny.14 mph100%30.24 "Hg5 mi
9:20 am37 °FPartly sunny.14 mph93%30.24 "Hg5 mi
8:50 am36 °FPartly sunny.14 mph100%30.24 "Hg5 mi
Weather by CustomWeather, © 2017

See weather overviewHow to use our weather pages